Location: Unspecified
(0.0000°N, 0.0000°E)
Time: 22:58:47
(UTC+00:00)

STARLINK-34091 - Visible Passes

Search period start: 20 June 2025 00:00
Search period end: 30 June 2025 00:00
Orbit: 479 x 482 km, 43.0° (Epoch: 20 June)

Date Brightness Start Highest point End Pass type
(mag) Time Alt. Az. Time Alt. Az. Time Alt. Az.
21 Jun 3.7 19:11:42 10° SSW 19:15:14 39° SE 19:15:26 38° SE visible
22 Jun 3.9 18:43:01 10° SSW 18:46:29 36° SE 18:49:57 10° ENE visible
22 Jun 6.4 20:23:20 10° WNW 20:25:14 13° NW 20:25:35 13° NW visible
23 Jun 6.5 19:54:14 10° W 19:56:20 14° NW 19:58:25 10° N visible
24 Jun 6.4 19:25:01 10° W 19:27:17 15° NW 19:29:35 10° N visible
25 Jun 5.6 05:30:42 10° NNW 05:33:59 29° NE 05:37:16 10° ESE visible
25 Jun 6.4 18:55:39 10° W 18:58:06 17° NW 19:00:34 10° N visible
26 Jun 5.6 05:01:32 10° NNW 05:04:44 27° NE 05:07:56 10° ESE visible
26 Jun 6.4 18:26:09 10° W 18:28:47 18° NW 18:31:23 10° N visible
27 Jun 5.7 04:32:14 10° NNW 04:35:20 25° NE 04:38:26 10° ESE visible
28 Jun 5.7 04:03:51 15° N 04:05:48 23° NE 04:08:47 10° E visible
29 Jun 6.6 03:38:47 11° E 03:38:47 11° E 03:38:57 10° E visible
29 Jun 4.5 05:13:06 17° W 05:14:45 22° SW 05:17:43 10° S visible
